[[{"header":{"parameterUnit":"m.s-1","parameterCategory":1,"la1":30.2991,"la2":30.254,"lo1":-89.0895,"lo2":-89.0444,"dy":0.0017,"dx":0.0017,"nx":28,"ny":28,"refTime":"2025-12-26T09:00:00:Z","depth":0,"parameterNumber":2,"parameterNumberName":"U-component_of_WINDS"},"data":[0,0,0,0,0,0,0,0,0,0,0,0,0,0,0,0,0,0,0,0,0,0,0,0,0,0,0,0,0,0,0,0,0,0,0,0,0,0,0,0,0,0,0,0,0,0,0,0,0,0,0,0,0,0,0,0,0,0,-0.0097,-0.0097,0,-0.0032,-0.0031,-0.003,0.0008,0.0008,0.0008,0.0008,0.0079,0.008,0.0082,0,0,0,0,0,0,0,0,0,0,0,0,0,-0.0185,-0.0184,-0.0097,-0.0096,-0.0096,-0.0032,-0.0031,-0.003,0.0008,0.0008,0.0008,0.0008,0.0078,0.008,0.0082,0,0,0,0,0,0,0,0,0,0,0,0,0,-0.0136,-0.0183,-0.0097,-0.0069,-0.0066,-0.0032,-0.0031,-0.003,0.0008,0.0008,0.0008,0.0008,0.0077,0.008,0.0082,0.0094,0,0,0.009,0.0092,0,0,0,0,0,0,0,0,-0.0139,-0.0133,-0.0074,-0.0071,-0.0067,-0.002,-0.0036,0.0012,0.0008,-0.002,0.0008,0.0008,0.0046,0.0051,0.0063,0.0098,0.0101,0.0091,0.0092,0.0093,0.0094,0,0,0,0,0,0,0,-0.0142,-0.0135,-0.0071,-0.0073,-0.0069,-0.0058,-0.0051,-0.0027,0.0011,-0.0018,-0.0015,-0.0008,0.0048,0.006,0.0065,0.0102,0.0091,0.0093,0.0095,0.0096,0.0152,0.0151,0,0,0,0,0,0,-0.0151,-0.0139,-0.0073,-0.0069,-0.0104,-0.0057,-0.0049,-0.0035,0.0011,0.0018,-0.0008,-0.0006,0.0056,0.0062,0.0068,0.0086,0.0093,0.0096,0.0097,0.0152,0.0152,0.0151,0,0,0,0,0,0,-0.0153,-0.0145,-0.0076,-0.0103,-0.0093,-0.0056,-0.0041,-0.0034,-0.0022,0.0018,0.0025,-0.0002,0.0056,0.0064,0.0088,0.0089,0.0097,0.0099,0.0152,0.0152,0.0152,0.0121,0,0,0,0,0,0,-0.0156,-0.0146,-0.0143,-0.0103,-0.0092,-0.0059,-0.0041,-0.0033,-0.0018,-0.0015,0.0025,0.0032,0.0057,0.0083,0.009,0.0092,0.0101,0.0152,0.0152,0.0152,0.0122,0.012,0.0118,0,0,0,0,0,-0.0159,-0.0153,-0.0143,-0.0135,-0.0087,-0.0059,-0.0052,-0.0025,-0.0018,-0.0013,0.0013,0.0031,0.0087,0.0086,0.0093,0.0096,0.0152,0.0152,0.0152,0.0123,0.012,0.0118,0,0,0,0,0,0,-0.0193,-0.0148,-0.0135,-0.0117,-0.0092,-0.0052,-0.0045,-0.0029,-0.0004,-0.0002,0.0032,0.0041,0.0061,0.0081,0.0079,0.0111,0.0122,0.0123,0.0097,0.0095,0.0093,0.0088,0.0104,0,0,0,0,0,-0.0198,-0.018,-0.0141,-0.0129,-0.0117,-0.0084,-0.007,-0.0051,-0.0023,-0.0012,0.0015,0.0043,0.0067,0.0082,0.0106,0.0125,0.0135,0.0131,0.0129,0.0127,0.0128,0.0141,0.014,0.0151,0.0151,0.0151,0,0,-0.0209,-0.0182,-0.0173,-0.0135,-0.0114,-0.0094,-0.0075,-0.0056,-0.004,-0.0009,0.0015,0.0036,0.007,0.0091,0.0102,0.0108,0.0128,0.0127,0.0125,0.0127,0.0141,0.014,0.0139,0.0151,0.0151,0.0151,0,0,-0.0219,-0.0198,-0.0185,-0.0163,-0.0131,-0.0108,-0.0105,-0.0067,-0.0052,-0.0028,-0.0003,0.0016,0.0056,0.0079,0.0096,0.0096,0.0115,0.0104,0.0093,0.0105,0.0104,0.0104,0.0105,0.0105,0.0104,0.0104,0.0104,0,-0.0237,-0.0208,-0.018,-0.0162,-0.0145,-0.0116,-0.0102,-0.0082,-0.0043,-0.0031,-0.0025,0.0027,0.0051,0.008,0.008,0.0092,0.0098,0.0099,0.0102,0.0102,0.0102,0.0103,0.0103,0.0103,0.0103,0.0103,0.0103,0,-0.023,-0.0211,-0.0204,-0.0167,-0.015,-0.0134,-0.0102,-0.0087,-0.0069,-0.0047,-0.0021,0.0009,0.0041,0.0049,0.0066,0.008,0.0083,0.0095,0.0106,0.0099,0.0101,0.0101,0.0101,0.0101,0.0102,0.0102,0,0,-0.0261,-0.0208,-0.0206,-0.0189,-0.015,-0.0134,-0.0115,-0.0085,-0.0073,-0.0046,-0.0029,0.0005,0.0017,0.0036,0.0057,0.0068,0.0067,0.0079,0.008,0.0076,0.0086,0.0077,0.0077,0.008,0.008,0.008,0.0083,0,-0.0264,-0.0231,-0.0205,-0.0181,-0.0161,-0.0133,-0.0117,-0.0091,-0.0069,-0.0048,-0.0023,0.0001,0.0014,0.0026,0.0038,0.0065,0.007,0.0065,0.0097,0.0098,0.0088,0.0078,0.0068,0.0069,0.0084,0.0084,0.0084,0,-0.0265,-0.024,-0.0215,-0.0177,-0.0168,-0.0154,-0.0123,-0.0104,-0.0073,-0.0058,-0.0036,-0.0014,0.0009,0.0018,0.005,0.0046,0.0061,0.0077,0.0077,0.0082,0.0091,0.0083,0.007,0.0071,0.0086,0.0086,0.0086,0,-0.0288,-0.0248,-0.0228,-0.0214,-0.0169,-0.016,-0.0141,-0.011,-0.0093,-0.0066,-0.0054,-0.0025,-0.0008,0.0015,0.0045,0.0049,0.0075,0.0086,0.009,0.0089,0.0094,0.0093,0.0085,0.0103,0.0103,0.0103,0.0103,0,-0.0295,-0.028,-0.0238,-0.0225,-0.0207,-0.0176,-0.0158,-0.0136,-0.0109,-0.009,-0.0063,-0.0046,-0.0008,0.0015,0.0039,0.0063,0.007,0.0084,0.009,0.0082,0.008,0.0092,0.0093,0.0103,0.0103,0.0103,0.0103,0,-0.0318,-0.0289,-0.0265,-0.0225,-0.0214,-0.0203,-0.0167,-0.0153,-0.0129,-0.0106,-0.0099,-0.0061,-0.0033,-0.0001,0.0037,0.0054,0.0076,0.0085,0.0065,0.0069,0.0071,0.007,0.007,0.0073,0.0088,0.0088,0.0088,0,-0.0324,-0.0313,-0.0271,-0.0257,-0.0239,-0.0217,-0.02,-0.0168,-0.015,-0.0113,-0.0103,-0.0073,-0.0048,-0.0004,0.0027,0.0058,0.0068,0.0066,0.0073,0.0064,0.0069,0.0068,0.007,0.0064,0.0064,0.0063,0.0063,0,-0.0338,-0.0324,-0.0301,-0.0272,-0.0253,-0.0228,-0.0203,-0.0192,-0.0155,-0.0137,-0.0108,-0.0089,-0.0049,-0.0019,0.0015,0.0037,0.0057,0.0061,0.0063,0.0055,0.0043,0.0051,0.0061,0.0061,0.0061,0.0061,0.0061,0.0061,-0.0352,-0.034,-0.0309,-0.0283,-0.0261,-0.0237,-0.0221,-0.0196,-0.0172,-0.0138,-0.012,-0.0092,-0.0059,-0.0011,0.001,0.0034,0.0041,0.0044,0.0045,0.0046,0.0044,0.0039,0.004,0.004,0.0041,0.0041,0.0041,0,-0.0364,-0.0342,-0.0319,-0.0284,-0.0264,-0.0248,-0.0218,-0.0202,-0.0177,-0.0149,-0.0125,-0.0091,-0.0062,-0.0028,0.0004,0.0017,0.0027,0.0024,0.0024,0.0029,0.0035,0.003,0.0016,0.0016,0.0016,0.0016,0.0016,0.0016,-0.0367,-0.0345,-0.0327,-0.0293,-0.0271,-0.0243,-0.0228,-0.0205,-0.0182,-0.0146,-0.0122,-0.0101,-0.0069,-0.0035,-0.0006,0.0003,0.0014,0.0009,0.0021,0.0026,0.0028,0.003,0.0026,0.0011,0.0011,0.0013,0.0013,0.0013]},{"header":{"parameterUnit":"m.s-1","parameterCategory":1,"la1":30.2991,"la2":30.254,"lo1":-89.0895,"lo2":-89.0444,"dy":0.0017,"dx":0.0017,"nx":28,"ny":28,"refTime":"2025-12-26T09:00:00:Z","depth":0,"parameterNumber":3,"parameterNumberName":"V-component_of_WINDS"},"data":[0,0,0,0,0,0,0,0,0,0,0,0,0,0,0,0,0,0,0,0,0,0,0,0,0,0,0,0,0,0,0,0,0,0,0,0,0,0,0,0,0,0,0,0,0,0,0,0,0,0,0,0,0,0,0,0,0,0,2.323,2.3231,0,2.3341,2.3342,2.3343,2.3376,2.3375,2.3375,2.3374,2.3489,2.3492,2.3496,0,0,0,0,0,0,0,0,0,0,0,0,0,2.3049,2.3052,2.323,2.3231,2.3233,2.3341,2.3342,2.3344,2.3376,2.3375,2.3375,2.3374,2.3487,2.3492,2.3496,0,0,0,0,0,0,0,0,0,0,0,0,0,2.314,2.3053,2.323,2.3262,2.3266,2.334,2.3342,2.3344,2.3376,2.3375,2.3374,2.3374,2.3486,2.3491,2.3497,2.3547,0,0,2.3513,2.3515,0,0,0,0,0,0,0,0,2.3135,2.3147,2.3256,2.326,2.3264,2.3344,2.332,2.3412,2.3376,2.3334,2.3374,2.3373,2.3441,2.345,2.3473,2.3553,2.3558,2.3513,2.3517,2.3519,2.3521,0,0,0,0,0,0,0,2.3129,2.3142,2.3274,2.3257,2.3263,2.3272,2.3284,2.3338,2.3391,2.3338,2.3341,2.3353,2.3443,2.3468,2.3476,2.3559,2.3513,2.3518,2.3521,2.3524,2.3691,2.3692,0,0,0,0,0,0,2.3117,2.3137,2.327,2.3277,2.3196,2.3276,2.3289,2.3319,2.3391,2.3401,2.3354,2.3354,2.3459,2.347,2.348,2.3547,2.3519,2.3524,2.3527,2.3689,2.3691,2.3692,0,0,0,0,0,0,2.3113,2.3128,2.3266,2.3208,2.3226,2.328,2.3313,2.3322,2.3346,2.3403,2.3413,2.3369,2.3459,2.3472,2.3531,2.3552,2.3526,2.3531,2.3688,2.369,2.3691,2.368,0,0,0,0,0,0,2.3107,2.3126,2.3145,2.3208,2.3229,2.3314,2.3314,2.3325,2.3355,2.3357,2.3419,2.3429,2.3459,2.3523,2.3537,2.3559,2.3536,2.3686,2.3689,2.3691,2.3679,2.3681,2.3683,0,0,0,0,0,2.3101,2.3137,2.3146,2.3162,2.3254,2.3315,2.3327,2.3361,2.3357,2.3377,2.3414,2.3427,2.3547,2.3529,2.3544,2.3568,2.3685,2.3688,2.3691,2.3678,2.3681,2.3683,0,0,0,0,0,0,2.3075,2.3146,2.3157,2.3214,2.3259,2.3321,2.3347,2.3362,2.3409,2.3409,2.3449,2.3463,2.3519,2.3549,2.3528,2.3623,2.3617,2.3623,2.3602,2.3605,2.3607,2.36,2.354,0,0,0,0,0,2.3076,2.312,2.3179,2.3224,2.3246,2.3293,2.3321,2.3343,2.3391,2.341,2.3451,2.3497,2.3546,2.3576,2.3624,2.3683,2.3699,2.3707,2.371,2.3711,2.3716,2.3754,2.3759,2.3701,2.3701,2.3701,0,0,2.3079,2.3123,2.3148,2.3221,2.3257,2.3303,2.3308,2.3355,2.339,2.3417,2.3476,2.3508,2.3562,2.3622,2.3651,2.3649,2.3736,2.3715,2.3715,2.372,2.3757,2.3763,2.3768,2.3703,2.3703,2.3702,0,0,2.3108,2.3144,2.3187,2.3225,2.3281,2.3313,2.3323,2.3384,2.3406,2.3466,2.3488,2.353,2.3611,2.3651,2.3681,2.3728,2.3743,2.3742,2.3754,2.379,2.3795,2.3799,2.3819,2.3825,2.3747,2.3747,2.3747,0,2.3104,2.3173,2.3208,2.3255,2.3288,2.3315,2.336,2.3395,2.3464,2.3486,2.3483,2.3589,2.3627,2.3698,2.371,2.3733,2.3748,2.3736,2.3791,2.3796,2.38,2.382,2.3827,2.3746,2.3746,2.3746,2.3746,0,2.3167,2.3215,2.3243,2.3311,2.3346,2.3392,2.3436,2.3468,2.3487,2.352,2.3582,2.3629,2.3688,2.3706,2.3725,2.3782,2.378,2.3783,2.3778,2.3805,2.3825,2.3832,2.3746,2.3746,2.3746,2.3746,0,0,2.3182,2.327,2.328,2.3313,2.3378,2.3416,2.3464,2.3523,2.3551,2.3598,2.3642,2.3711,2.3716,2.3751,2.3775,2.3806,2.3845,2.3807,2.3809,2.3815,2.3914,2.3913,2.392,2.3854,2.3856,2.3857,2.391,0,2.3221,2.3309,2.3343,2.3415,2.3461,2.3489,2.3532,2.3577,2.3609,2.3654,2.3689,2.3739,2.374,2.3762,2.3794,2.3833,2.3865,2.3829,2.3897,2.3899,2.3885,2.393,2.3928,2.3976,2.3918,2.3919,2.392,0,2.3278,2.3328,2.3404,2.3468,2.3488,2.3526,2.3584,2.3626,2.3679,2.3701,2.3741,2.3764,2.3818,2.3808,2.3884,2.3859,2.3889,2.3912,2.3915,2.3925,2.3913,2.3944,2.3992,2.4001,2.3931,2.393,2.393,0,2.3285,2.337,2.3429,2.3455,2.3529,2.3556,2.3588,2.3641,2.3675,2.3726,2.3749,2.3805,2.3836,2.388,2.3918,2.3907,2.3992,2.3985,2.4014,2.4013,2.4032,2.4031,2.4089,2.4047,2.4046,2.4046,2.4046,0,2.3326,2.3373,2.3433,2.3469,2.3523,2.3563,2.3616,2.365,2.3697,2.3742,2.3768,2.3809,2.3856,2.3904,2.3934,2.3995,2.4008,2.4028,2.4036,2.4028,2.4026,2.4049,2.4048,2.4048,2.4048,2.4047,2.4047,0,2.3344,2.3385,2.3451,2.3517,2.3535,2.3572,2.3629,2.3666,2.37,2.3756,2.3772,2.3825,2.3883,2.3925,2.4,2.402,2.4087,2.4093,2.4069,2.4074,2.4102,2.41,2.418,2.4194,2.4139,2.4139,2.4139,0,2.3368,2.3405,2.3476,2.3508,2.3541,2.3591,2.3627,2.3668,2.3704,2.377,2.38,2.386,2.391,2.4003,2.4049,2.4107,2.4117,2.4141,2.4126,2.4117,2.4121,2.412,2.4125,2.4143,2.4144,2.4144,2.4144,0,2.3409,2.3428,2.3479,2.3538,2.358,2.3628,2.3676,2.3701,2.3751,2.3791,2.3851,2.3891,2.3968,2.4029,2.4092,2.4127,2.4146,2.4149,2.4159,2.4152,2.4138,2.415,2.4078,2.4147,2.4147,2.4147,2.4146,2.4146,2.3432,2.3468,2.3525,2.3581,2.3622,2.3668,2.3707,2.3747,2.3798,2.3865,2.3886,2.395,2.4006,2.4093,2.4128,2.418,2.4179,2.4193,2.4197,2.4201,2.4203,2.4128,2.4191,2.4191,2.4191,2.4191,2.4191,0,2.3477,2.3515,2.3567,2.3635,2.368,2.3693,2.3749,2.3786,2.3842,2.3892,2.3942,2.4014,2.4074,2.4125,2.4188,2.4219,2.423,2.4235,2.4234,2.4243,2.4198,2.4184,2.4226,2.4226,2.4226,2.4226,2.4226,2.4226,2.3505,2.3568,2.3595,2.3679,2.3718,2.3781,2.3812,2.3855,2.3896,2.3975,2.4025,2.4059,2.4111,2.4178,2.4235,2.4249,2.4272,2.4275,2.4292,2.4249,2.4245,2.4241,2.4229,2.4279,2.4279,2.4333,2.4333,2.4334]}]]